Regional Weather Roundup
Issued by NWS

Home | Current Version | Previous Version | Graphics & Text | Print | Product List | Glossary On
Versions: 1 2 3 4 5 6 7 8 9 10 11 12 13 14 15 16 17 18 19 20 21 22 23 24 25 26 27 28 29 30 31 32 33 34 35 36 37 38 39 40 41 42 43 44 45 46 47 48 49 50
000
ASUS45 KCYS 010710
RWRWY

WYOMING REGIONAL WEATHER ROUNDUP
NATIONAL WEATHER SERVICE CHEYENNE WY
100 AM MDT FRI AUG 01 2014

NOTE:  "FAIR" INDICATES FEW OR NO CLOUDS BELOW 12,000 FEET
WITH NO SIGNIFICANT WEATHER AND/OR OBSTRUCTIONS TO VISIBILITY.

WYZ001-010800-
YELLOWSTONE NATIONAL PARK

CITY           SKY/WX    TMP DP  RH WIND       PRES   REMARKS
LK YELLOWSTONE   N/A     46  41  82 NW3       30.44S
W YELLOWSTONE  NOT AVBL

$$
WYZ002>013-054>058-071-098>099-010800-
NORTHERN WYOMING

CITY           SKY/WX    TMP DP  RH WIND       PRES   REMARKS
JACKSON        MOCLDY    59  43  55 CALM      30.31S
CODY           PTCLDY    66  39  37 SW6       30.20F
GREYBULL       PTCLDY    69  40  34 CALM      30.11F
WORLAND        PTCLDY    65  43  44 CALM      30.13S
SHERIDAN       CLEAR     60  44  55 S7        30.12S
BUFFALO        PTCLDY    63  38  39 SE8       30.20S
GILLETTE       PTCLDY    65  43  44 S9        30.16F
HULETT         FAIR      68  43  40 MISG      30.17
NEWCASTLE      FAIR      63  41  45 MISG      30.20

$$
WYZ014>020-022>026-101>103-010800-
CENTRAL WYOMING

CITY           SKY/WX    TMP DP  RH WIND       PRES   REMARKS
BIG PINEY      PTCLDY    50  45  83 NW5       30.35S
PINEDALE       CLOUDY    54  45  71 W3        30.35S
DUBOIS         FAIR      52  37  58 NW10      30.35F
LANDER         CLEAR     64  33  31 S3        30.22S
RIVERTON       PTCLDY    63  39  41 CALM      30.23S
CASPER         CLEAR     54  38  54 VRB3      30.22S
DOUGLAS        CLEAR     60  44  55 SE5       30.23S

$$
WYZ021-027>030-104>119-010800-
SOUTHERN WYOMING

CITY           SKY/WX    TMP DP  RH WIND       PRES   REMARKS
EVANSTON       PTCLDY    61  42  49 CALM      30.33S
KEMMERER       SUNNY     52  39  62 N14       30.35F
FORT BRIDGER   FAIR      59  45  58 SW3       30.36R
ROCK SPRINGS   PTCLDY    63  34  33 NE5       30.31R
DIXON          FAIR      60  43  53 NE7       30.31S
RAWLINS        CLEAR     57  41  55 SE5       30.32R
SARATOGA       FAIR      55  43  62 SE8       30.34S
LARAMIE        CLEAR     51  45  79 SE5       30.37S
CHEYENNE       CLEAR     57  47  69 W7        30.30F
TORRINGTON     CLEAR     61  48  62 SW5       30.20R
PINE BLUFFS    FAIR      57  52  82 N3        30.26F

$$



USA.gov is the U.S. government's official web portal to all federal, state and local government web resources and services.